Wind_Speed
13 13 14 13 12 11 11 12 13 13 14 14 15 18 21 24 26 29 31 33 35 37 39 40 38 37 38 39 39 39 37 34 31 31 31 29 27 29 29 28 27 28 27 27
12 13 11 9 9 9 10 13 16 18 19 19 19 23 25 29 30 31 33 35 37 38 39 40 39 38 38 38 36 33 31 30 32 33 29 28 29 28 29 28 28 28 28 28
11 9 7 7 9 11 13 16 18 21 22 23 24 26 29 32 33 34 34 35 36 35 37 38 37 36 36 37 35 33 31 30 30 30 30 29 30 32 29 29 29 29 28 28
9 9 8 7 8 10 12 16 18 20 23 24 25 26 28 32 34 34 34 33 33 34 34 35 35 35 34 33 32 32 30 30 30 31 32 32 33 33 32 31 29 29 28 27
9 9 7 6 6 8 10 12 14 17 20 22 22 25 25 28 31 33 33 33 32 32 32 32 32 32 32 31 31 31 31 31 32 33 34 33 33 33 33 33 32 31 29 30
7 7 7 5 5 7 10 11 12 14 16 18 19 22 22 23 26 28 30 32 30 31 30 30 30 32 33 33 34 34 33 34 34 35 35 35 36 36 36 36 36 35 34 34
5 5 6 7 6 7 10 11 11 11 13 15 18 20 19 21 22 22 22 25 27 26 27 29 31 33 35 36 36 37 37 38 39 39 40 40 40 40 41 40 40 40 40 39
5 4 5 5 6 8 9 11 12 13 14 15 16 18 19 21 23 23 24 25 25 26 27 29 33 36 38 39 40 41 42 43 44 45 45 46 46 46 45 45 45 45 45 44
7 5 5 5 7 9 11 12 14 16 17 18 19 19 20 23 24 26 28 28 27 27 32 35 36 39 41 42 44 45 46 47 48 49 50 51 51 51 51 51 51 50 50 49
9 8 8 8 9 11 14 16 17 19 20 21 22 22 24 25 26 29 31 32 33 35 38 40 43 45 46 47 49 49 50 51 52 53 54 54 55 55 56 56 55 55 54 54
10 10 9 10 11 13 15 16 17 19 20 22 25 27 27 28 31 33 35 37 40 42 44 46 48 49 51 52 54 54 55 55 56 56 57 57 58 58 59 59 59 59 59 59
10 10 11 12 13 14 16 17 18 19 21 24 27 30 31 33 35 38 40 42 44 46 48 50 52 53 55 57 58 59 60 60 60 60 60 60 61 61 62 62 62 63 63 63
10 11 11 12 13 15 18 19 19 20 22 25 29 32 34 37 39 42 44 46 48 50 52 54 56 57 59 60 61 62 63 64 64 65 65 65 65 64 65 65 64 65 65 66
10 11 11 12 14 17 18 20 20 21 24 27 30 33 36 39 42 44 47 49 52 54 56 58 60 62 63 64 65 65 66 66 67 67 67 66 65 65 64 64 64 64 64 65
10 11 12 14 16 18 19 20 21 23 25 29 32 35 38 41 43 46 49 52 54 57 59 61 64 65 66 66 67 67 67 67 66 65 63 62 61 60 59 58 59 59 61 62
10 11 12 14 17 18 18 19 21 23 26 29 33 36 39 42 45 48 51 54 57 59 61 63 64 66 67 67 67 66 65 64 61 58 56 54 52 51 51 51 51 51 51 53
10 12 13 14 16 18 17 19 22 26 28 31 35 38 41 44 46 50 53 57 59 61 62 63 65 66 66 65 63 61 58 55 52 50 47 45 44 43 42 41 41 41 42 42
11 13 14 16 18 18 19 23 27 30 33 35 38 42 45 48 50 52 56 58 60 61 62 63 65 64 62 59 57 55 52 49 46 44 42 40 39 37 35 35 35 34 34 34
13 16 18 20 23 24 25 28 32 35 37 40 43 45 48 50 52 53 56 58 59 61 63 64 63 60 57 54 53 51 48 46 43 42 40 38 37 36 35 34 32 31 30 29
17 18 20 23 25 27 29 32 35 39 41 43 46 49 51 54 57 57 57 59 61 63 63 62 59 56 54 52 51 49 47 45 43 41 39 37 36 35 34 32 31 30 29 28
18 20 22 24 27 29 32 35 37 40 43 45 49 52 55 57 59 59 60 61 62 62 61 58 56 54 53 51 50 48 46 44 42 40 39 37 36 35 34 32 31 30 29 28
20 22 24 26 29 31 34 37 40 43 46 49 52 54 56 57 58 59 60 61 61 60 58 57 55 53 52 51 49 47 44 43 42 41 39 37 35 35 34 33 31 30 29 28
20 22 25 27 30 33 36 40 43 46 48 51 53 55 57 58 58 59 60 60 60 58 56 55 54 52 50 48 46 44 42 41 41 39 37 35 34 34 33 32 31 30 29 28
21 23 25 28 31 34 38 41 43 45 48 51 54 56 57 58 59 59 58 59 58 56 54 53 52 49 47 45 44 42 40 39 38 35 33 32 32 32 32 31 30 28 28 27
22 24 27 29 32 34 37 40 43 46 49 52 54 56 57 57 58 58 57 56 55 53 53 52 50 47 46 44 42 40 38 36 34 32 29 28 28 28 28 29 28 27 25 24
23 25 28 30 33 36 39 43 45 48 50 53 55 56 56 57 57 56 55 55 53 52 52 50 48 47 45 43 40 38 36 33 31 28 25 24 23 23 23 24 24 24 23 22
Wind_Direction
233 238 239 245 247 245 237 229 222 219 225 233 240 246 248 253 259 264 268 273 278 282 285 290 290 290 290 291 290 289 288 280 277 279 279 276 276 280 285 290 291 289 288 288
227 227 240 248 259 257 249 242 234 230 232 236 236 237 240 245 252 258 264 270 275 280 285 290 292 294 294 297 296 296 290 287 286 284 280 282 282 285 287 287 290 289 287 285
231 237 238 254 255 248 248 251 245 238 235 239 243 246 250 250 254 260 266 270 273 278 285 289 293 296 297 301 299 298 296 293 294 293 290 291 288 290 286 287 288 286 286 282
230 234 239 250 257 258 254 255 256 249 244 243 248 256 259 260 262 265 268 270 274 277 282 289 291 292 296 299 299 298 299 296 293 290 289 289 288 287 287 286 286 286 284 280
223 234 248 259 264 273 273 272 268 260 255 253 255 264 268 270 270 268 269 270 272 275 280 286 288 291 296 298 299 299 297 296 295 290 287 285 288 286 284 284 282 282 280 277
241 245 257 267 275 288 292 293 287 275 266 263 265 274 279 282 283 277 273 270 272 278 280 283 287 290 294 297 298 297 296 294 293 291 288 285 286 284 282 283 281 279 278 276
266 260 264 267 278 294 300 303 300 287 279 280 280 284 290 297 301 297 289 285 281 284 284 285 289 292 294 296 297 296 296 294 293 291 289 286 284 282 281 280 279 277 276 275
325 300 287 278 287 307 313 315 313 310 306 303 300 300 303 307 309 311 313 310 302 291 291 293 292 294 296 297 298 298 296 295 293 291 289 287 285 283 281 278 277 275 273 273
345 335 307 296 297 304 304 307 309 309 308 309 310 311 313 312 313 316 318 317 313 303 299 298 297 296 297 298 298 297 295 293 291 290 288 286 284 282 281 278 276 274 272 271
342 336 317 302 298 299 302 304 306 310 308 311 313 314 318 317 316 316 316 314 312 308 305 301 301 300 300 299 298 296 295 292 290 288 286 285 283 281 279 277 276 274 272 270
329 326 314 301 299 299 299 301 301 306 307 310 313 315 319 319 318 317 316 313 311 309 307 306 305 304 303 301 300 298 296 294 291 289 287 284 282 280 278 276 274 273 271 270
328 323 315 309 307 304 305 306 306 307 310 312 313 315 319 319 318 316 315 313 311 310 309 308 308 306 304 302 301 299 297 295 292 290 288 285 283 280 278 275 273 271 269 268
326 322 318 311 308 307 307 310 313 313 313 314 314 316 318 318 318 317 316 314 313 312 311 309 308 306 304 303 301 299 297 295 293 291 288 286 283 280 278 275 273 271 269 267
327 324 322 318 312 311 314 316 316 314 311 312 315 316 317 317 317 317 316 314 313 312 311 309 308 306 305 303 301 299 297 296 293 291 289 287 284 282 279 277 274 272 270 267
326 325 323 319 316 320 322 319 316 316 315 315 317 317 317 317 317 317 315 314 313 312 311 309 308 306 304 303 301 300 298 297 295 293 291 288 286 284 281 279 277 274 271 268
323 323 322 319 319 323 326 322 317 317 318 318 318 318 318 318 318 317 315 314 312 312 310 309 308 306 304 303 302 300 299 298 296 294 292 290 288 285 283 281 279 276 273 271
323 324 323 322 324 327 329 324 321 321 323 323 322 321 320 319 319 318 316 314 314 313 311 310 309 307 305 304 302 301 300 299 297 295 293 291 289 287 284 282 281 278 275 272
331 332 332 331 331 335 334 330 329 328 328 327 325 324 323 322 322 321 318 316 315 313 312 310 309 307 305 304 303 302 300 299 296 294 292 290 289 286 284 283 281 279 277 275
339 339 337 335 335 336 336 335 332 330 331 329 327 326 325 324 322 321 318 317 316 315 314 313 312 310 308 305 304 302 300 298 295 292 290 288 286 284 283 281 279 278 276 274
343 340 336 333 333 335 335 334 333 332 331 330 329 328 327 326 325 325 322 321 320 319 317 316 314 312 310 308 305 303 300 297 294 291 288 285 283 281 279 278 276 275 273 273
338 335 332 331 332 332 334 334 332 331 332 331 331 330 329 328 327 326 325 324 322 321 320 318 316 314 311 309 306 304 301 298 294 290 287 283 280 277 275 275 274 272 270 270
331 330 331 331 331 333 333 333 334 334 334 334 333 331 329 329 328 327 327 326 324 323 322 321 319 317 314 312 309 306 303 299 295 290 286 282 278 275 272 271 271 269 267 267
329 329 329 330 331 332 334 336 337 336 335 334 332 331 330 330 330 329 329 329 328 327 326 325 323 320 319 316 313 310 306 302 299 293 286 281 277 273 271 270 269 266 265 266
328 326 328 330 333 336 337 337 336 335 334 334 333 333 332 332 332 332 332 332 331 331 330 330 328 326 324 322 319 315 311 307 303 297 291 283 278 272 268 266 265 264 263 263
326 326 330 333 336 337 337 336 336 336 335 336 336 335 335 334 335 336 336 336 336 335 335 334 333 332 331 327 324 321 317 314 310 304 296 288 281 274 269 265 261 260 259 259
326 329 332 334 336 337 338 338 338 338 338 338 338 338 337 337 339 339 339 340 339 339 339 339 338 337 336 334 331 328 325 321 317 311 302 293 286 279 270 262 257 254 253 252
Height
5877 5879 5879 5879 5879 5880 5880 5880 5880 5879 5879 5879 5879 5879 5879 5877 5876 5876 5875 5873 5872 5870 5868 5865 5863 5862 5858 5853 5846 5842 5839 5838 5837 5838 5836 5835 5836 5836 5835 5834 5833 5833 5831 5830
5875 5875 5876 5876 5876 5876 5876 5875 5875 5875 5875 5875 5875 5874 5874 5872 5871 5870 5869 5868 5867 5865 5863 5861 5857 5854 5851 5846 5840 5834 5833 5831 5830 5828 5828 5828 5826 5826 5827 5827 5826 5825 5825 5824
5871 5873 5873 5873 5873 5872 5872 5871 5871 5871 5871 5871 5871 5870 5869 5867 5866 5864 5864 5862 5861 5860 5858 5855 5852 5849 5846 5841 5837 5832 5829 5826 5824 5822 5822 5822 5821 5820 5819 5819 5819 5819 5818 5817
5868 5869 5869 5869 5869 5869 5868 5868 5867 5867 5866 5867 5868 5866 5865 5862 5861 5860 5858 5857 5855 5853 5852 5850 5847 5844 5840 5837 5833 5829 5825 5822 5820 5819 5817 5816 5815 5813 5813 5812 5811 5811 5811 5810
5866 5867 5867 5867 5867 5866 5865 5864 5863 5863 5862 5863 5863 5862 5860 5857 5855 5854 5852 5850 5847 5846 5846 5843 5840 5838 5835 5831 5827 5823 5820 5817 5814 5812 5810 5809 5807 5806 5805 5805 5804 5804 5803 5802
5866 5866 5866 5866 5865 5864 5863 5862 5860 5859 5859 5859 5858 5857 5855 5853 5850 5848 5845 5842 5841 5840 5838 5835 5833 5830 5827 5824 5820 5816 5813 5810 5807 5805 5802 5800 5799 5798 5797 5796 5795 5794 5794 5793
5865 5865 5865 5864 5863 5862 5861 5859 5858 5856 5856 5855 5854 5852 5851 5848 5845 5841 5838 5837 5835 5832 5829 5827 5825 5822 5819 5816 5812 5808 5805 5801 5798 5796 5793 5791 5789 5788 5787 5786 5785 5784 5783 5782
5863 5863 5863 5862 5861 5860 5858 5857 5856 5854 5852 5850 5849 5847 5846 5843 5840 5837 5833 5831 5828 5826 5823 5820 5817 5814 5810 5806 5802 5798 5795 5791 5787 5784 5781 5779 5777 5775 5774 5773 5772 5771 5770 5770
5862 5862 5861 5860 5859 5858 5856 5854 5853 5851 5849 5846 5844 5843 5841 5838 5834 5831 5828 5825 5821 5818 5815 5811 5807 5804 5800 5795 5791 5787 5783 5779 5774 5771 5767 5765 5762 5760 5759 5757 5757 5756 5756 5755
5861 5860 5859 5858 5857 5855 5854 5852 5850 5848 5845 5842 5840 5838 5836 5832 5829 5825 5821 5817 5813 5809 5805 5801 5797 5792 5787 5782 5778 5773 5769 5765 5760 5756 5752 5749 5746 5744 5742 5740 5739 5739 5738 5738
5860 5859 5858 5856 5854 5853 5852 5850 5847 5844 5841 5838 5835 5835 5830 5826 5822 5818 5813 5809 5804 5799 5794 5789 5784 5779 5773 5767 5762 5757 5751 5746 5742 5738 5734 5731 5728 5725 5723 5721 5720 5719 5719 5719
5859 5858 5856 5854 5853 5850 5849 5847 5844 5842 5838 5835 5831 5830 5824 5819 5815 5810 5805 5799 5794 5788 5782 5776 5771 5764 5758 5751 5745 5739 5733 5727 5722 5718 5714 5710 5707 5704 5702 5700 5699 5699 5699 5699
5857 5856 5854 5852 5852 5849 5845 5843 5840 5838 5834 5830 5826 5825 5817 5812 5807 5801 5795 5789 5783 5777 5770 5764 5757 5750 5743 5735 5728 5721 5715 5708 5703 5697 5693 5689 5685 5682 5680 5678 5676 5676 5676 5676
5855 5853 5852 5850 5847 5844 5842 5839 5837 5834 5830 5826 5822 5817 5812 5806 5800 5793 5787 5779 5772 5765 5758 5750 5742 5734 5726 5718 5710 5703 5696 5689 5682 5676 5670 5666 5661 5658 5656 5654 5652 5652 5652 5652
5854 5852 5849 5846 5843 5840 5838 5835 5832 5829 5825 5821 5816 5811 5805 5799 5792 5785 5777 5769 5761 5753 5744 5736 5726 5717 5708 5700 5691 5683 5675 5668 5660 5654 5648 5643 5639 5635 5632 5630 5629 5628 5628 5628
5851 5850 5847 5845 5841 5839 5836 5832 5829 5825 5821 5816 5811 5805 5798 5791 5784 5776 5767 5758 5750 5741 5731 5721 5711 5701 5691 5681 5672 5663 5655 5647 5640 5634 5628 5623 5619 5616 5613 5610 5608 5607 5606 5606
5849 5847 5845 5843 5840 5837 5834 5830 5825 5821 5816 5811 5804 5799 5791 5784 5776 5767 5757 5747 5737 5727 5716 5705 5695 5684 5673 5663 5653 5644 5636 5629 5623 5617 5612 5607 5603 5600 5597 5594 5592 5590 5589 5589
5847 5845 5842 5839 5837 5834 5832 5825 5819 5814 5809 5803 5796 5789 5781 5773 5765 5756 5744 5733 5723 5712 5701 5690 5678 5667 5656 5646 5636 5628 5621 5613 5607 5602 5598 5593 5590 5587 5584 5581 5579 5578 5577 5576
5844 5841 5838 5835 5831 5828 5825 5819 5813 5807 5801 5795 5788 5780 5772 5763 5754 5746 5733 5721 5709 5697 5685 5673 5660 5649 5639 5629 5620 5612 5605 5599 5593 5588 5584 5580 5577 5574 5572 5570 5568 5567 5566 5566
5841 5838 5835 5831 5827 5823 5820 5814 5807 5801 5794 5787 5778 5770 5760 5750 5740 5732 5719 5706 5694 5681 5668 5655 5644 5633 5623 5613 5604 5596 5590 5584 5578 5574 5570 5566 5563 5561 5560 5558 5557 5557 5556 5556
5839 5836 5832 5828 5823 5819 5814 5808 5802 5796 5789 5779 5769 5759 5748 5738 5727 5716 5704 5692 5680 5666 5653 5641 5629 5618 5608 5598 5589 5581 5574 5568 5563 5559 5555 5552 5550 5548 5547 5546 5546 5546 5546 5546
5836 5832 5828 5823 5819 5815 5808 5802 5795 5787 5778 5769 5759 5750 5739 5729 5717 5705 5692 5679 5666 5653 5640 5627 5615 5604 5593 5583 5573 5565 5558 5552 5547 5543 5540 5537 5535 5534 5534 5534 5534 5534 5535 5536
5833 5829 5824 5820 5816 5809 5801 5794 5786 5778 5770 5761 5752 5742 5730 5719 5707 5694 5681 5667 5654 5640 5627 5614 5602 5591 5580 5569 5559 5551 5544 5538 5532 5527 5524 5522 5521 5521 5521 5521 5522 5523 5524 5525
5829 5824 5820 5815 5809 5803 5796 5789 5782 5774 5765 5756 5745 5733 5721 5709 5696 5683 5670 5656 5642 5629 5616 5603 5591 5579 5568 5557 5547 5538 5531 5524 5518 5513 5510 5508 5507 5507 5508 5509 5511 5512 5514 5515
5825 5820 5815 5810 5805 5799 5793 5785 5777 5769 5759 5748 5737 5725 5712 5699 5687 5673 5660 5646 5633 5620 5607 5594 5581 5569 5558 5547 5537 5528 5519 5512 5507 5502 5498 5496 5495 5495 5496 5498 5500 5502 5504 5506
5820 5815 5810 5806 5800 5794 5787 5779 5770 5761 5752 5741 5729 5717 5704 5691 5678 5665 5651 5638 5625 5612 5599 5586 5574 5561 5550 5539 5529 5519 5511 5503 5497 5493 5489 5487 5486 5485 5486 5488 5490 5493 5496 5499